"datetime","temp","dp","rain_mm","uv","solar","mb","wind_mph","gust_mph","windchill","rh"
"2013-12-21 00:00:00",9.6,8.2,0.0,0.0,0,1018.1,3,4,"",91
"2013-12-21 00:01:00",9.6,8.0,0.0,0.0,0,1018.1,1,12,"",90
"2013-12-21 00:02:00",9.6,8.0,0.0,0.0,0,1018.1,4,12,"",90
"2013-12-21 00:03:00",9.6,8.0,0.0,0.0,0,1018.1,4,4,"",90
"2013-12-21 00:04:00",9.6,8.0,0.0,0.0,0,1018.2,3,4,"",90
"2013-12-21 00:05:00",9.6,8.0,0.0,0.0,0,1018.2,1,3,"",90
"2013-12-21 00:06:00",9.6,8.1,0.0,0.0,0,1018.2,3,9,"",90
"2013-12-21 00:07:00",9.6,8.1,0.0,0.0,0,1018.2,8,22,"",90
"2013-12-21 00:08:00",9.6,8.1,0.0,0.0,0,1018.1,4,8,"",90
"2013-12-21 00:09:00",9.6,8.1,0.0,0.0,0,1018.2,3,4,"",90
"2013-12-21 00:10:00",9.7,8.1,0.0,0.0,0,1018.1,3,4,"",90
"2013-12-21 00:11:00",9.7,8.1,0.0,0.0,0,1018.3,3,4,"",90
"2013-12-21 00:12:00",9.7,8.1,0.0,0.0,0,1018.2,1,3,"",90
"2013-12-21 00:13:00",9.7,8.1,0.0,0.0,0,1018.3,1,4,"",90
"2013-12-21 00:14:00",9.7,8.1,0.0,0.0,0,1018.3,1,6,"",90
"2013-12-21 00:15:00",9.7,8.1,0.0,0.0,0,1018.2,3,9,"",90
"2013-12-21 00:16:00",9.6,8.1,0.0,0.0,0,1018.2,3,6,"",90
"2013-12-21 00:17:00",9.6,8.1,0.0,0.0,0,1018.3,3,4,"",90
"2013-12-21 00:18:00",9.6,8.1,0.0,0.0,0,1018.3,1,12,"",90
"2013-12-21 00:19:00",9.6,8.1,0.0,0.0,0,1018.3,3,12,"",90
"2013-12-21 00:20:00",9.7,8.1,0.0,0.0,0,1018.2,3,4,"",90
"2013-12-21 00:21:00",9.7,8.1,0.0,0.0,0,1018.2,3,4,"",90
"2013-12-21 00:22:00",9.7,8.1,0.0,0.0,0,1018.2,3,4,"",90
"2013-12-21 00:23:00",9.7,8.1,0.0,0.0,0,1018.2,3,4,"",90
"2013-12-21 00:24:00",9.7,8.1,0.0,0.0,0,1018.3,3,4,"",90
"2013-12-21 00:25:00",9.7,8.1,0.0,0.0,0,1018.1,1,1,"",90
"2013-12-21 00:26:00",9.7,8.1,0.0,0.0,0,1018.1,1,4,"",90
"2013-12-21 00:27:00",9.7,8.3,0.0,0.0,0,1018.1,3,12,"",91
"2013-12-21 00:28:00",9.7,8.3,0.0,0.0,0,1018.1,4,9,"",91
"2013-12-21 00:29:00",9.7,8.3,0.0,0.0,0,1018.1,4,8,"",91
"2013-12-21 00:30:00",9.7,8.3,0.0,0.0,0,1018.2,3,6,"",91
"2013-12-21 00:31:00",9.7,8.3,0.0,0.0,0,1018.1,3,4,"",91
"2013-12-21 00:32:00",9.7,8.3,0.0,0.0,0,1018.1,3,4,"",91
"2013-12-21 00:33:00",9.7,8.3,0.0,0.0,0,1018.2,3,8,"",91
"2013-12-21 00:34:00",9.7,8.3,0.0,0.0,0,1018.1,4,9,"",91
"2013-12-21 00:35:00",9.7,8.3,0.2,0.0,0,1018.1,6,19,"",91
"2013-12-21 00:36:00",9.7,8.3,0.2,0.0,0,1018.2,4,4,"",91
"2013-12-21 00:37:00",9.7,8.3,0.2,0.0,0,1018.1,3,4,"",91
"2013-12-21 00:38:00",9.7,8.4,0.2,0.0,0,1018.1,3,4,"",92
"2013-12-21 00:39:00",9.7,8.4,0.2,0.0,0,1018.0,3,6,"",92
"2013-12-21 00:40:00",9.6,8.4,0.2,0.0,0,1018.1,3,4,"",92
"2013-12-21 00:41:00",9.6,8.4,0.2,0.0,0,1018.1,3,12,"",92
"2013-12-21 00:42:00",9.6,8.4,0.4,0.0,0,1018.1,3,4,"",92
"2013-12-21 00:43:00",9.6,8.5,0.4,0.0,0,1018.0,4,13,"",93
"2013-12-21 00:44:00",9.6,8.5,0.6,0.0,0,1018.0,6,6,"",93
"2013-12-21 00:45:00",9.6,8.5,0.6,0.0,0,1018.0,3,10,"",93
"2013-12-21 00:46:00",9.6,8.5,0.6,0.0,0,1018.1,4,4,"",93
"2013-12-21 00:47:00",9.6,8.5,0.6,0.0,0,1018.0,3,4,"",93
"2013-12-21 00:48:00",9.5,8.5,0.6,0.0,0,1018.0,3,8,"",93
"2013-12-21 00:49:00",9.5,8.6,0.6,0.0,0,1018.0,3,9,"",94
"2013-12-21 00:50:00",9.5,8.6,0.8,0.0,0,1018.0,4,4,"",94
"2013-12-21 00:51:00",9.5,8.6,0.8,0.0,0,1018.0,3,3,"",94
"2013-12-21 00:52:00",9.4,8.5,1.0,0.0,0,1018.1,1,4,"",94
"2013-12-21 00:53:00",9.4,8.5,1.0,0.0,0,1018.1,3,6,"",94
"2013-12-21 00:54:00",9.4,8.5,1.0,0.0,0,1018.0,3,4,"",94
"2013-12-21 00:55:00",9.4,8.5,1.2,0.0,0,1018.0,3,4,"",94
"2013-12-21 00:56:00",9.4,8.5,1.2,0.0,0,1018.1,1,4,"",94
"2013-12-21 00:57:00",9.4,8.6,1.2,0.0,0,1018.0,3,4,"",95
"2013-12-21 00:58:00",9.4,8.6,1.2,0.0,0,1018.0,3,4,"",95
"2013-12-21 00:59:00",9.3,8.6,1.2,0.0,0,1018.0,3,4,"",95
"2013-12-21 01:00:00",9.3,8.6,1.2,0.0,0,1018.1,3,4,"",95
"2013-12-21 01:01:00",9.3,8.5,1.2,0.0,0,1017.9,3,4,"",95
"2013-12-21 01:02:00",9.3,8.5,1.4,0.0,0,1017.9,4,9,"",95
"2013-12-21 01:03:00",9.3,8.5,1.4,0.0,0,1017.9,3,8,"",95
"2013-12-21 01:04:00",9.2,8.5,1.4,0.0,0,1017.8,3,22,"",95
"2013-12-21 01:05:00",9.2,8.5,1.4,0.0,0,1017.8,6,22,"",95
"2013-12-21 01:06:00",9.2,8.5,1.4,0.0,0,1017.8,3,3,"",95
"2013-12-21 01:07:00",9.2,8.5,1.4,0.0,0,1017.8,3,4,"",95
"2013-12-21 01:08:00",9.2,8.5,1.4,0.0,0,1017.9,3,4,"",95
"2013-12-21 01:09:00",9.2,8.6,1.4,0.0,0,1017.9,1,3,"",96
"2013-12-21 01:10:00",9.2,8.6,1.4,0.0,0,1017.9,1,6,"",96
"2013-12-21 01:11:00",9.2,8.6,1.4,0.0,0,1018.0,4,6,"",96
"2013-12-21 01:12:00",9.2,8.6,1.4,0.0,0,1017.9,3,3,"",96
"2013-12-21 01:13:00",9.2,8.6,1.4,0.0,0,1018.0,1,4,"",96
"2013-12-21 01:14:00",9.2,8.6,1.4,0.0,0,1017.9,3,4,"",96
"2013-12-21 01:15:00",9.2,8.6,1.4,0.0,0,1017.8,3,13,"",96
"2013-12-21 01:16:00",9.2,8.6,1.6,0.0,0,1017.8,4,10,"",96
"2013-12-21 01:17:00",9.2,8.6,1.6,0.0,0,1017.8,1,3,"",96
"2013-12-21 01:18:00",9.1,8.5,1.6,0.0,0,1017.8,1,3,"",96
"2013-12-21 01:19:00",9.1,8.5,1.6,0.0,0,1017.7,1,3,"",96
"2013-12-21 01:20:00",9.1,8.5,1.6,0.0,0,1017.6,1,4,"",96
"2013-12-21 01:21:00",9.1,8.5,1.8,0.0,0,1017.8,4,15,"",96
"2013-12-21 01:22:00",9.1,8.5,1.8,0.0,0,1017.7,4,9,"",96
"2013-12-21 01:23:00",9.1,8.5,1.8,0.0,0,1017.6,3,6,"",96
"2013-12-21 01:24:00",9.1,8.5,1.8,0.0,0,1017.8,3,6,"",96
"2013-12-21 01:25:00",9.1,8.5,1.8,0.0,0,1017.7,3,4,"",96
"2013-12-21 01:26:00",9.1,8.5,1.8,0.0,0,1017.8,3,9,"",96
"2013-12-21 01:27:00",9.1,8.5,1.8,0.0,0,1017.8,6,15,"",96
"2013-12-21 01:28:00",9.1,8.5,1.8,0.0,0,1017.7,3,9,"",96
"2013-12-21 01:29:00",9.1,8.5,1.8,0.0,0,1017.6,3,8,"",96
"2013-12-21 01:30:00",9.1,8.5,1.8,0.0,0,1017.6,1,3,"",96
"2013-12-21 01:31:00",9.1,8.6,1.8,0.0,0,1017.6,1,4,"",97
"2013-12-21 01:32:00",9.1,8.6,1.8,0.0,0,1017.6,3,4,"",97
"2013-12-21 01:33:00",9.1,8.6,1.8,0.0,0,1017.6,3,4,"",97
"2013-12-21 01:34:00",9.1,8.6,1.8,0.0,0,1017.5,3,4,"",97
"2013-12-21 01:35:00",9.1,8.6,1.8,0.0,0,1017.6,3,6,"",97
"2013-12-21 01:36:00",9.1,8.6,1.8,0.0,0,1017.6,3,4,"",97
"2013-12-21 01:37:00",9.1,8.6,2.0,0.0,0,1017.6,3,6,"",97
"2013-12-21 01:38:00",9.1,8.6,2.0,0.0,0,1017.6,3,4,"",97
"2013-12-21 01:39:00",9.1,8.6,2.0,0.0,0,1017.5,1,3,"",97
"2013-12-21 01:40:00",9.1,8.6,2.0,0.0,0,1017.6,1,1,"",97
"2013-12-21 01:41:00",9.1,8.6,2.0,0.0,0,1017.6,1,4,"",97
"2013-12-21 01:42:00",9.1,8.6,2.0,0.0,0,1017.6,3,9,"",97
"2013-12-21 01:43:00",9.1,8.6,2.2,0.0,0,1017.5,4,9,"",97
"2013-12-21 01:44:00",9.1,8.6,2.2,0.0,0,1017.5,4,8,"",97
"2013-12-21 01:45:00",9.1,8.6,2.2,0.0,0,1017.5,1,4,"",97
"2013-12-21 01:46:00",9.1,8.6,2.2,0.0,0,1017.6,3,8,"",97
"2013-12-21 01:47:00",9.1,8.6,2.2,0.0,0,1017.6,3,4,"",97
"2013-12-21 01:48:00",9.1,8.6,2.2,0.0,0,1017.6,4,12,"",97
"2013-12-21 01:49:00",9.1,8.6,2.2,0.0,0,1017.5,3,3,"",97
"2013-12-21 01:50:00",9.1,8.6,2.2,0.0,0,1017.6,1,3,"",97
"2013-12-21 01:51:00",9.1,8.6,2.2,0.0,0,1017.6,1,4,"",97
"2013-12-21 01:52:00",9.1,8.6,2.2,0.0,0,1017.6,3,10,"",97
"2013-12-21 01:53:00",9.1,8.6,2.2,0.0,0,1017.6,3,4,"",97
"2013-12-21 01:54:00",9.1,8.6,2.2,0.0,0,1017.7,1,3,"",97
"2013-12-21 01:55:00",9.1,8.6,2.2,0.0,0,1017.6,1,4,"",97
"2013-12-21 01:56:00",9.1,8.6,2.2,0.0,0,1017.6,1,3,"",97
"2013-12-21 01:57:00",9.1,8.6,2.2,0.0,0,1017.7,1,4,"",97
"2013-12-21 01:58:00",9.1,8.6,2.2,0.0,0,1017.6,3,4,"",97
"2013-12-21 01:59:00",9.1,8.6,2.2,0.0,0,1017.6,4,10,"",97
"2013-12-21 02:00:00",9.1,8.6,2.2,0.0,0,1017.6,3,8,"",97
"2013-12-21 02:01:00",9.1,8.6,2.2,0.0,0,1017.5,3,6,"",97
"2013-12-21 02:02:00",9.1,8.6,2.2,0.0,0,1017.5,3,4,"",97
"2013-12-21 02:03:00",9.1,8.6,2.4,0.0,0,1017.6,3,8,"",97
"2013-12-21 02:04:00",9.1,8.6,2.4,0.0,0,1017.6,4,8,"",97
"2013-12-21 02:05:00",9.1,8.6,2.4,0.0,0,1017.6,3,4,"",97
"2013-12-21 02:06:00",9.1,8.6,2.4,0.0,0,1017.6,3,4,"",97
"2013-12-21 02:07:00",9.1,8.6,2.4,0.0,0,1017.6,3,4,"",97
"2013-12-21 02:08:00",9.1,8.6,2.4,0.0,0,1017.5,1,8,"",97
"2013-12-21 02:09:00",9.1,8.6,2.4,0.0,0,1017.5,3,8,"",97
"2013-12-21 02:10:00",9.1,8.6,2.4,0.0,0,1017.5,3,4,"",97
"2013-12-21 02:11:00",9.1,8.6,2.4,0.0,0,1017.5,1,4,"",97
"2013-12-21 02:12:00",9.1,8.6,2.4,0.0,0,1017.5,1,4,"",97
"2013-12-21 02:13:00",9.1,8.6,2.4,0.0,0,1017.5,1,4,"",97
"2013-12-21 02:14:00",9.1,8.6,2.4,0.0,0,1017.4,3,4,"",97
"2013-12-21 02:15:00",9.1,8.6,2.4,0.0,0,1017.5,3,4,"",97
"2013-12-21 02:16:00",9.1,8.6,2.4,0.0,0,1017.5,3,6,"",97
"2013-12-21 02:17:00",9.1,8.6,2.4,0.0,0,1017.5,3,9,"",97
"2013-12-21 02:18:00",9.0,8.6,2.4,0.0,0,1017.5,4,4,"",97
"2013-12-21 02:19:00",9.1,8.6,2.4,0.0,0,1017.5,3,6,"",97
"2013-12-21 02:20:00",9.1,8.6,2.4,0.0,0,1017.4,4,10,"",97
"2013-12-21 02:21:00",9.1,8.6,2.4,0.0,0,1017.5,3,4,"",97
"2013-12-21 02:22:00",9.1,8.8,2.4,0.0,0,1017.5,1,4,"",98
"2013-12-21 02:23:00",9.1,8.8,2.4,0.0,0,1017.5,1,3,"",98
"2013-12-21 02:24:00",9.1,8.8,2.4,0.0,0,1017.5,1,3,"",98
"2013-12-21 02:25:00",9.1,8.8,2.4,0.0,0,1017.5,1,4,"",98
"2013-12-21 02:26:00",9.1,8.8,2.4,0.0,0,1017.5,3,9,"",98
"2013-12-21 02:27:00",9.1,8.8,2.4,0.0,0,1017.5,4,4,"",98
"2013-12-21 02:28:00",9.1,8.8,2.4,0.0,0,1017.5,3,4,"",98
"2013-12-21 02:29:00",9.1,8.8,2.4,0.0,0,1017.5,1,12,"",98
"2013-12-21 02:30:00",9.1,8.8,2.4,0.0,0,1017.4,4,12,"",98
"2013-12-21 02:31:00",9.1,8.8,2.4,0.0,0,1017.5,4,8,"",98
"2013-12-21 02:32:00",9.1,8.8,2.4,0.0,0,1017.4,3,9,"",98
"2013-12-21 02:33:00",9.1,8.8,2.4,0.0,0,1017.5,4,8,"",98
"2013-12-21 02:34:00",9.1,8.8,2.4,0.0,0,1017.4,3,4,"",98
"2013-12-21 02:35:00",9.1,8.8,2.4,0.0,0,1017.5,1,4,"",98
"2013-12-21 02:36:00",9.1,8.8,2.4,0.0,0,1017.5,4,12,"",98
"2013-12-21 02:37:00",9.1,8.8,2.4,0.0,0,1017.4,6,4,"",98
"2013-12-21 02:38:00",9.1,8.8,2.4,0.0,0,1017.4,3,4,"",98
"2013-12-21 02:39:00",9.1,8.8,2.4,0.0,0,1017.4,3,8,"",98
"2013-12-21 02:40:00",9.1,8.8,2.4,0.0,0,1017.4,3,8,"",98
"2013-12-21 02:41:00",9.1,8.8,2.4,0.0,0,1017.4,3,4,"",98
"2013-12-21 02:42:00",9.1,8.8,2.4,0.0,0,1017.3,3,4,"",98
"2013-12-21 02:43:00",9.1,8.8,2.4,0.0,0,1017.4,1,3,"",98
"2013-12-21 02:44:00",9.1,8.8,2.4,0.0,0,1017.4,1,4,"",98
"2013-12-21 02:45:00",9.1,8.8,2.4,0.0,0,1017.3,1,6,"",98
"2013-12-21 02:46:00",9.1,8.8,3.2,0.0,0,1017.4,3,8,"",98
"2013-12-21 02:47:00",9.1,8.8,3.2,0.0,0,1017.3,1,3,"",98
"2013-12-21 02:48:00",9.1,8.8,3.2,0.0,0,1017.3,1,4,"",98
"2013-12-21 02:49:00",9.1,8.8,3.2,0.0,0,1017.3,3,4,"",98
"2013-12-21 02:50:00",9.1,8.8,3.2,0.0,0,1017.3,1,3,"",98
"2013-12-21 02:51:00",9.1,8.8,3.2,0.0,0,1017.2,1,6,"",98
"2013-12-21 02:52:00",9.1,8.8,3.2,0.0,0,1017.3,3,9,"",98
"2013-12-21 02:53:00",9.1,8.8,3.2,0.0,0,1017.3,3,9,"",98
"2013-12-21 02:54:00",9.1,8.8,3.2,0.0,0,1017.2,3,4,"",98
"2013-12-21 02:55:00",9.1,8.8,3.2,0.0,0,1017.3,1,4,"",98
"2013-12-21 02:56:00",9.1,8.8,3.2,0.0,0,1017.2,3,13,"",98
"2013-12-21 02:57:00",9.1,8.8,3.2,0.0,0,1017.2,4,9,"",98
"2013-12-21 02:58:00",9.1,8.8,3.2,0.0,0,1017.2,3,4,"",98
"2013-12-21 02:59:00",9.1,8.8,3.2,0.0,0,1017.1,3,4,"",98
"2013-12-21 03:00:00",9.1,8.8,3.2,0.0,0,1017.2,3,4,"",98
"2013-12-21 03:01:00",9.2,8.9,3.2,0.0,0,1017.2,3,15,"",98
"2013-12-21 03:02:00",9.2,8.9,3.2,0.0,0,1017.1,4,6,"",98
"2013-12-21 03:03:00",9.2,8.9,3.2,0.0,0,1017.1,3,4,"",98
"2013-12-21 03:04:00",9.2,8.9,3.2,0.0,0,1017.1,3,4,"",98
"2013-12-21 03:05:00",9.2,8.9,3.2,0.0,0,1017.1,3,6,"",98
"2013-12-21 03:06:00",9.2,8.9,3.2,0.0,0,1017.2,3,10,"",98
"2013-12-21 03:07:00",9.2,8.9,3.2,0.0,0,1017.1,3,10,"",98
"2013-12-21 03:08:00",9.2,8.9,3.2,0.0,0,1017.0,1,1,"",98
"2013-12-21 03:09:00",9.2,8.9,3.2,0.0,0,1017.0,1,4,"",98
"2013-12-21 03:10:00",9.2,8.9,3.2,0.0,0,1017.1,3,4,"",98
"2013-12-21 03:11:00",9.2,8.9,3.2,0.0,0,1017.0,3,6,"",98
"2013-12-21 03:12:00",9.2,8.9,3.2,0.0,0,1017.0,3,6,"",98
"2013-12-21 03:13:00",9.2,8.9,3.2,0.0,0,1017.0,3,4,"",98
"2013-12-21 03:14:00",9.2,8.9,3.2,0.0,0,1017.0,3,4,"",98
"2013-12-21 03:15:00",9.2,8.9,3.2,0.0,0,1017.0,1,3,"",98
"2013-12-21 03:16:00",9.2,8.9,3.2,0.0,0,1017.0,1,3,"",98
"2013-12-21 03:17:00",9.2,8.9,3.2,0.0,0,1017.0,1,4,"",98
"2013-12-21 03:18:00",9.2,8.9,3.2,0.0,0,1017.0,3,6,"",98
"2013-12-21 03:19:00",9.2,8.9,3.2,0.0,0,1016.9,3,4,"",98
"2013-12-21 03:20:00",9.2,8.9,3.2,0.0,0,1017.0,1,4,"",98
"2013-12-21 03:21:00",9.2,8.9,3.2,0.0,0,1016.9,1,3,"",98
"2013-12-21 03:22:00",9.2,8.9,3.2,0.0,0,1016.9,1,3,"",98
"2013-12-21 03:23:00",9.2,8.9,3.2,0.0,0,1016.9,1,3,"",98
"2013-12-21 03:24:00",9.2,8.9,3.2,0.0,0,1016.9,0,4,"",98
"2013-12-21 03:25:00",9.3,9.0,3.2,0.0,0,1016.9,3,4,"",98
"2013-12-21 03:26:00",9.2,8.9,3.2,0.0,0,1016.9,3,4,"",98
"2013-12-21 03:27:00",9.2,8.9,3.2,0.0,0,1016.9,3,4,"",98
"2013-12-21 03:28:00",9.2,8.9,3.4,0.0,0,1016.9,3,4,"",98
"2013-12-21 03:29:00",9.2,8.9,3.4,0.0,0,1016.8,3,8,"",98
"2013-12-21 03:30:00",9.2,8.9,3.4,0.0,0,1016.9,4,15,"",98
"2013-12-21 03:31:00",9.3,9.0,3.4,0.0,0,1016.9,4,4,"",98
"2013-12-21 03:32:00",9.3,9.0,3.4,0.0,0,1016.9,1,1,"",98
"2013-12-21 03:33:00",9.3,9.0,3.4,0.0,0,1016.9,3,8,"",98
"2013-12-21 03:34:00",9.3,9.0,3.4,0.0,0,1016.8,3,9,"",98
"2013-12-21 03:35:00",9.3,9.0,3.4,0.0,0,1016.8,3,6,"",98
"2013-12-21 03:36:00",9.3,9.0,3.4,0.0,0,1016.8,3,4,"",98
"2013-12-21 03:37:00",9.3,9.0,3.4,0.0,0,1016.8,3,6,"",98
"2013-12-21 03:38:00",9.3,9.0,3.4,0.0,0,1016.8,3,4,"",98
"2013-12-21 03:39:00",9.3,9.0,3.4,0.0,0,1016.8,3,8,"",98
"2013-12-21 03:40:00",9.3,9.0,3.4,0.0,0,1016.7,3,6,"",98
"2013-12-21 03:41:00",9.3,9.0,3.4,0.0,0,1016.8,3,4,"",98
"2013-12-21 03:42:00",9.3,9.0,3.6,0.0,0,1016.7,3,4,"",98
"2013-12-21 03:43:00",9.3,9.0,3.6,0.0,0,1016.7,3,4,"",98
"2013-12-21 03:44:00",9.3,9.0,3.6,0.0,0,1016.8,3,6,"",98
"2013-12-21 03:45:00",9.3,9.0,3.8,0.0,0,1016.7,3,4,"",98
"2013-12-21 03:46:00",9.3,9.0,3.8,0.0,0,1016.7,3,6,"",98
"2013-12-21 03:47:00",9.3,9.0,3.8,0.0,0,1016.7,3,3,"",98
"2013-12-21 03:48:00",9.3,9.0,3.8,0.0,0,1016.8,1,4,"",98
"2013-12-21 03:49:00",9.3,9.0,3.8,0.0,0,1016.8,1,4,"",98
"2013-12-21 03:50:00",9.3,9.0,3.8,0.0,0,1016.7,3,3,"",98
"2013-12-21 03:51:00",9.3,9.0,3.8,0.0,0,1016.7,1,3,"",98
"2013-12-21 03:52:00",9.3,9.0,3.8,0.0,0,1016.7,1,4,"",98
"2013-12-21 03:53:00",9.3,9.0,4.0,0.0,0,1016.7,1,4,"",98
"2013-12-21 03:54:00",9.3,9.0,4.0,0.0,0,1016.7,3,4,"",98
"2013-12-21 03:55:00",9.3,9.0,4.0,0.0,0,1016.7,3,3,"",98
"2013-12-21 03:56:00",9.3,9.0,4.0,0.0,0,1016.7,1,10,"",98
"2013-12-21 03:57:00",9.3,9.0,4.2,0.0,0,1016.7,4,8,"",98
"2013-12-21 03:58:00",9.3,9.0,4.2,0.0,0,1016.7,3,6,"",98
"2013-12-21 03:59:00",9.3,9.0,4.2,0.0,0,1016.7,4,12,"",98
"2013-12-21 04:00:00",9.3,9.0,4.2,0.0,0,1016.7,4,4,"",98
"2013-12-21 04:01:00",9.3,9.0,4.2,0.0,0,1016.7,1,9,"",98
"2013-12-21 04:02:00",9.4,9.1,4.2,0.0,0,1016.7,3,9,"",98
"2013-12-21 04:03:00",9.4,9.1,4.2,0.0,0,1016.8,3,4,"",98
"2013-12-21 04:04:00",9.4,9.1,4.2,0.0,0,1016.7,3,4,"",98
"2013-12-21 04:05:00",9.4,9.1,4.2,0.0,0,1016.8,1,3,"",98
"2013-12-21 04:06:00",9.4,9.1,4.4,0.0,0,1016.7,3,9,"",98
"2013-12-21 04:07:00",9.4,9.1,4.4,0.0,0,1016.7,4,8,"",98
"2013-12-21 04:08:00",9.4,9.1,4.4,0.0,0,1016.7,3,9,"",98
"2013-12-21 04:09:00",9.4,9.1,4.4,0.0,0,1016.6,3,4,"",98
"2013-12-21 04:10:00",9.4,9.1,4.4,0.0,0,1016.6,1,4,"",98
"2013-12-21 04:11:00",9.4,9.1,4.4,0.0,0,1016.6,1,3,"",98
"2013-12-21 04:12:00",9.4,9.1,4.4,0.0,0,1016.6,1,4,"",98
"2013-12-21 04:13:00",9.4,9.1,4.4,0.0,0,1016.6,1,4,"",98
"2013-12-21 04:14:00",9.4,9.1,4.4,0.0,0,1016.6,3,8,"",98
"2013-12-21 04:15:00",9.4,9.1,4.4,0.0,0,1016.6,3,4,"",98
"2013-12-21 04:16:00",9.4,9.1,4.4,0.0,0,1016.5,3,8,"",98
"2013-12-21 04:17:00",9.4,9.1,4.4,0.0,0,1016.5,3,4,"",98
"2013-12-21 04:18:00",9.4,9.1,4.4,0.0,0,1016.5,1,1,"",98
"2013-12-21 04:19:00",9.4,9.1,4.4,0.0,0,1016.5,1,8,"",98
"2013-12-21 04:20:00",9.4,9.1,4.4,0.0,0,1016.5,3,4,"",98
"2013-12-21 04:21:00",9.4,9.1,4.4,0.0,0,1016.4,1,3,"",98
"2013-12-21 04:22:00",9.4,9.1,4.4,0.0,0,1016.4,1,4,"",98
"2013-12-21 04:23:00",9.4,9.1,4.4,0.0,0,1016.4,1,6,"",98
"2013-12-21 04:24:00",9.4,9.1,4.6,0.0,0,1016.5,3,4,"",98
"2013-12-21 04:25:00",9.4,9.1,4.6,0.0,0,1016.4,3,4,"",98
"2013-12-21 04:26:00",9.4,9.1,4.6,0.0,0,1016.4,3,4,"",98
"2013-12-21 04:27:00",9.4,9.1,4.6,0.0,0,1016.5,3,4,"",98
"2013-12-21 04:28:00",9.4,9.1,4.6,0.0,0,1016.5,3,4,"",98
"2013-12-21 04:29:00",9.4,9.1,4.6,0.0,0,1016.5,1,4,"",98
"2013-12-21 04:30:00",9.4,9.1,4.6,0.0,0,1016.5,3,4,"",98
"2013-12-21 04:31:00",9.4,9.1,4.6,0.0,0,1016.5,1,3,"",98
"2013-12-21 04:32:00",9.4,9.1,4.6,0.0,0,1016.5,1,3,"",98
"2013-12-21 04:33:00",9.4,9.1,4.6,0.0,0,1016.4,1,3,"",98
"2013-12-21 04:34:00",9.4,9.1,4.6,0.0,0,1016.4,1,3,"",98
"2013-12-21 04:35:00",9.4,9.1,4.6,0.0,0,1016.4,1,4,"",98
"2013-12-21 04:36:00",9.4,9.1,4.6,0.0,0,1016.3,1,4,"",98
"2013-12-21 04:37:00",9.4,9.1,4.6,0.0,0,1016.3,3,4,"",98
"2013-12-21 04:38:00",9.4,9.1,4.6,0.0,0,1016.3,1,4,"",98
"2013-12-21 04:39:00",9.4,9.1,4.6,0.0,0,1016.3,1,3,"",98
"2013-12-21 04:40:00",9.4,9.1,4.6,0.0,0,1016.3,1,4,"",98
"2013-12-21 04:41:00",9.4,9.1,4.6,0.0,0,1016.2,3,4,"",98
"2013-12-21 04:42:00",9.5,9.2,4.6,0.0,0,1016.3,1,4,"",98
"2013-12-21 04:43:00",9.4,9.1,4.6,0.0,0,1016.2,3,4,"",98
"2013-12-21 04:44:00",9.5,9.2,4.6,0.0,0,1016.2,3,8,"",98
"2013-12-21 04:45:00",9.5,9.2,4.6,0.0,0,1016.2,3,9,"",98
"2013-12-21 04:46:00",9.5,9.2,4.6,0.0,0,1016.2,1,3,"",98
"2013-12-21 04:47:00",9.5,9.2,4.6,0.0,0,1016.2,3,9,"",98
"2013-12-21 04:48:00",9.5,9.2,4.6,0.0,0,1016.2,3,4,"",98
"2013-12-21 04:49:00",9.5,9.2,4.6,0.0,0,1016.3,1,4,"",98
"2013-12-21 04:50:00",9.5,9.2,4.8,0.0,0,1016.2,1,4,"",98
"2013-12-21 04:51:00",9.5,9.2,4.8,0.0,0,1016.3,4,13,"",98
"2013-12-21 04:52:00",9.5,9.2,4.8,0.0,0,1016.3,4,4,"",98
"2013-12-21 04:53:00",9.5,9.4,4.8,0.0,0,1016.3,3,3,"",99
"2013-12-21 04:54:00",9.5,9.2,4.8,0.0,0,1016.2,1,13,"",98
"2013-12-21 04:55:00",9.5,9.2,4.8,0.0,0,1016.2,3,4,"",98
"2013-12-21 04:56:00",9.5,9.2,4.8,0.0,0,1016.2,4,13,"",98
"2013-12-21 04:57:00",9.5,9.2,4.8,0.0,0,1016.2,3,4,"",98
"2013-12-21 04:58:00",9.5,9.2,4.8,0.0,0,1016.2,3,4,"",98
"2013-12-21 04:59:00",9.6,9.3,4.8,0.0,0,1016.2,3,3,"",98
"2013-12-21 05:00:00",9.6,9.3,5.0,0.0,0,1016.1,1,3,"",98
"2013-12-21 05:01:00",9.5,9.2,5.0,0.0,0,1016.2,1,9,"",98
"2013-12-21 05:02:00",9.5,9.2,5.0,0.0,0,1016.1,3,8,"",98
"2013-12-21 05:03:00",9.5,9.2,5.0,0.0,0,1016.1,1,4,"",98
"2013-12-21 05:04:00",9.5,9.2,5.0,0.0,0,1016.1,1,4,"",98
"2013-12-21 05:05:00",9.6,9.3,5.0,0.0,0,1016.1,3,6,"",98
"2013-12-21 05:06:00",9.5,9.2,5.0,0.0,0,1016.1,3,4,"",98
"2013-12-21 05:07:00",9.6,9.3,5.0,0.0,0,1016.1,3,4,"",98
"2013-12-21 05:08:00",9.6,9.3,5.0,0.0,0,1016.1,3,4,"",98
"2013-12-21 05:09:00",9.6,9.3,5.0,0.0,0,1016.1,1,3,"",98
"2013-12-21 05:10:00",9.6,9.3,5.0,0.0,0,1016.0,1,4,"",98
"2013-12-21 05:11:00",9.6,9.3,5.0,0.0,0,1016.2,1,3,"",98
"2013-12-21 05:12:00",9.6,9.3,5.0,0.0,0,1016.1,1,4,"",98
"2013-12-21 05:13:00",9.5,9.2,5.0,0.0,0,1016.1,1,4,"",98
"2013-12-21 05:14:00",9.5,9.2,5.0,0.0,0,1016.1,1,4,"",98
"2013-12-21 05:15:00",9.5,9.2,5.0,0.0,0,1016.1,1,4,"",98
"2013-12-21 05:16:00",9.5,9.2,5.0,0.0,0,1016.0,3,4,"",98
"2013-12-21 05:17:00",9.5,9.2,5.0,0.0,0,1016.0,3,4,"",98
"2013-12-21 05:18:00",9.5,9.2,5.0,0.0,0,1016.0,1,4,"",98
"2013-12-21 05:19:00",9.5,9.2,5.0,0.0,0,1016.1,3,4,"",98
"2013-12-21 05:20:00",9.5,9.2,5.0,0.0,0,1016.0,3,4,"",98
"2013-12-21 05:21:00",9.5,9.2,5.0,0.0,0,1015.9,3,8,"",98
"2013-12-21 05:22:00",9.5,9.2,5.0,0.0,0,1015.9,4,8,"",98
"2013-12-21 05:23:00",9.5,9.2,5.0,0.0,0,1015.9,1,3,"",98
"2013-12-21 05:24:00",9.5,9.2,5.0,0.0,0,1016.0,1,3,"",98
"2013-12-21 05:25:00",9.5,9.2,5.0,0.0,0,1015.9,1,4,"",98
"2013-12-21 05:26:00",9.5,9.2,5.0,0.0,0,1015.9,3,4,"",98
"2013-12-21 05:27:00",9.5,9.2,5.0,0.0,0,1016.0,3,6,"",98
"2013-12-21 05:28:00",9.5,9.2,5.0,0.0,0,1016.0,3,6,"",98
"2013-12-21 05:29:00",9.5,9.2,5.0,0.0,0,1015.9,3,4,"",98
"2013-12-21 05:30:00",9.5,9.2,5.2,0.0,0,1015.9,4,13,"",98
"2013-12-21 05:31:00",9.5,9.2,5.2,0.0,0,1015.9,4,4,"",98
"2013-12-21 05:32:00",9.5,9.2,5.2,0.0,0,1015.9,1,3,"",98
"2013-12-21 05:33:00",9.5,9.2,5.2,0.0,0,1016.0,1,4,"",98
"2013-12-21 05:34:00",9.5,9.2,5.2,0.0,0,1015.9,3,4,"",98
"2013-12-21 05:35:00",9.5,9.2,5.2,0.0,0,1015.9,3,6,"",98
"2013-12-21 05:36:00",9.5,9.2,5.2,0.0,0,1015.9,3,4,"",98
"2013-12-21 05:37:00",9.5,9.2,5.2,0.0,0,1015.9,1,6,"",98
"2013-12-21 05:38:00",9.5,9.2,5.2,0.0,0,1015.8,3,4,"",98
"2013-12-21 05:39:00",9.5,9.2,5.2,0.0,0,1015.8,1,9,"",98
"2013-12-21 05:40:00",9.5,9.2,5.2,0.0,0,1015.8,3,9,"",98
"2013-12-21 05:41:00",9.5,9.2,5.2,0.0,0,1015.8,1,4,"",98
"2013-12-21 05:42:00",9.5,9.2,5.2,0.0,0,1015.8,3,8,"",98
"2013-12-21 05:43:00",9.5,9.2,5.2,0.0,0,1015.8,1,4,"",98
"2013-12-21 05:44:00",9.5,9.2,5.2,0.0,0,1015.7,3,4,"",98
"2013-12-21 05:45:00",9.5,9.2,5.2,0.0,0,1015.7,3,4,"",98
"2013-12-21 05:46:00",9.5,9.2,5.2,0.0,0,1015.7,3,4,"",98
"2013-12-21 05:47:00",9.5,9.2,5.2,0.0,0,1015.6,3,4,"",98
"2013-12-21 05:48:00",9.5,9.2,5.2,0.0,0,1015.7,3,4,"",98
"2013-12-21 05:49:00",9.5,9.2,5.2,0.0,0,1015.7,3,4,"",98
"2013-12-21 05:50:00",9.5,9.2,5.2,0.0,0,1015.7,3,4,"",98
"2013-12-21 05:51:00",9.5,9.2,5.2,0.0,0,1015.7,3,4,"",98
"2013-12-21 05:52:00",9.5,9.2,5.2,0.0,0,1015.6,3,12,"",98
"2013-12-21 05:53:00",9.5,9.2,5.2,0.0,0,1015.6,3,4,"",98
"2013-12-21 05:54:00",9.5,9.2,5.2,0.0,0,1015.6,3,8,"",98
"2013-12-21 05:55:00",9.5,9.2,5.2,0.0,0,1015.6,1,4,"",98
"2013-12-21 05:56:00",9.5,9.2,5.2,0.0,0,1015.6,3,4,"",98
"2013-12-21 05:57:00",9.5,9.2,5.2,0.0,0,1015.7,3,4,"",98
"2013-12-21 05:58:00",9.5,9.2,5.2,0.0,0,1015.7,3,4,"",98
"2013-12-21 05:59:00",9.5,9.2,5.2,0.0,0,1015.6,3,6,"",98
"2013-12-21 06:00:00",9.5,9.2,5.2,0.0,0,1015.6,3,8,"",98
"2013-12-21 06:01:00",9.5,9.2,5.2,0.0,0,1015.6,4,13,"",98
"2013-12-21 06:02:00",9.5,9.2,5.2,0.0,0,1015.6,4,12,"",98
"2013-12-21 06:03:00",9.5,9.2,5.2,0.0,0,1015.6,4,6,"",98
"2013-12-21 06:04:00",9.5,9.2,5.2,0.0,0,1015.6,3,4,"",98
"2013-12-21 06:05:00",9.5,9.2,5.2,0.0,0,1015.6,1,4,"",98
"2013-12-21 06:06:00",9.5,9.2,5.2,0.0,0,1015.6,1,6,"",98
"2013-12-21 06:07:00",9.5,9.2,5.2,0.0,0,1015.7,3,6,"",98
"2013-12-21 06:08:00",9.5,9.2,5.2,0.0,0,1015.6,4,9,"",98
"2013-12-21 06:09:00",9.5,9.2,5.2,0.0,0,1015.6,4,4,"",98
"2013-12-21 06:10:00",9.5,9.2,5.2,0.0,0,1015.6,3,12,"",98
"2013-12-21 06:11:00",9.5,9.2,5.2,0.0,0,1015.7,3,4,"",98
"2013-12-21 06:12:00",9.5,9.2,5.4,0.0,0,1015.6,3,4,"",98
"2013-12-21 06:13:00",9.5,9.2,5.4,0.0,0,1015.5,3,4,"",98
"2013-12-21 06:14:00",9.5,9.2,5.4,0.0,0,1015.6,3,8,"",98
"2013-12-21 06:15:00",9.5,9.2,5.4,0.0,0,1015.6,4,4,"",98
"2013-12-21 06:16:00",9.5,9.2,5.4,0.0,0,1015.6,3,3,"",98
"2013-12-21 06:17:00",9.5,9.2,5.4,0.0,0,1015.7,3,6,"",98
"2013-12-21 06:18:00",9.5,9.2,5.4,0.0,0,1015.6,3,4,"",98
"2013-12-21 06:19:00",9.5,9.2,5.4,0.0,0,1015.6,3,4,"",98
"2013-12-21 06:20:00",9.5,9.2,5.4,0.0,0,1015.7,3,4,"",98
"2013-12-21 06:21:00",9.5,9.2,5.4,0.0,0,1015.7,3,12,"",98
"2013-12-21 06:22:00",9.5,9.2,5.4,0.0,0,1015.7,4,8,"",98
"2013-12-21 06:23:00",9.5,9.2,5.4,0.0,0,1015.6,4,4,"",98
"2013-12-21 06:24:00",9.5,9.2,5.4,0.0,0,1015.6,3,6,"",98
"2013-12-21 06:25:00",9.5,9.2,5.4,0.0,0,1015.6,3,3,"",98
"2013-12-21 06:26:00",9.5,9.2,5.4,0.0,0,1015.6,1,4,"",98
"2013-12-21 06:27:00",9.5,9.2,5.4,0.0,0,1015.6,3,4,"",98
"2013-12-21 06:28:00",9.5,9.2,5.4,0.0,0,1015.6,4,13,"",98
"2013-12-21 06:29:00",9.5,9.2,5.4,0.0,0,1015.6,3,4,"",98
"2013-12-21 06:30:00",9.5,9.2,5.4,0.0,0,1015.6,1,4,"",98
"2013-12-21 06:31:00",9.5,9.2,5.6,0.0,0,1015.5,4,15,"",98
"2013-12-21 06:32:00",9.5,9.2,5.6,0.0,0,1015.5,6,6,"",98
"2013-12-21 06:33:00",9.5,9.2,5.6,0.0,0,1015.5,3,4,"",98
"2013-12-21 06:34:00",9.5,9.2,5.6,0.0,0,1015.5,1,4,"",98
"2013-12-21 06:35:00",9.5,9.2,5.6,0.0,0,1015.5,3,8,"",98
"2013-12-21 06:36:00",9.5,9.2,5.6,0.0,0,1015.5,3,8,"",98
"2013-12-21 06:37:00",9.5,9.2,5.6,0.0,0,1015.6,1,3,"",98
"2013-12-21 06:38:00",9.5,9.2,5.6,0.0,0,1015.6,3,15,"",98
"2013-12-21 06:39:00",9.5,9.2,5.6,0.0,0,1015.5,4,4,"",98
"2013-12-21 06:40:00",9.5,9.2,5.6,0.0,0,1015.5,4,15,"",98
"2013-12-21 06:41:00",9.5,9.2,5.6,0.0,0,1015.6,3,3,"",98
"2013-12-21 06:42:00",9.5,9.2,5.6,0.0,0,1015.5,1,6,"",98
"2013-12-21 06:43:00",9.5,9.2,5.6,0.0,0,1015.5,3,4,"",98
"2013-12-21 06:44:00",9.5,9.2,5.6,0.0,0,1015.5,3,13,"",98
"2013-12-21 06:45:00",9.5,9.2,5.6,0.0,0,1015.4,4,6,"",98
"2013-12-21 06:46:00",9.5,9.2,5.6,0.0,0,1015.4,1,4,"",98
"2013-12-21 06:47:00",9.5,9.2,5.6,0.0,0,1015.4,3,4,"",98
"2013-12-21 06:48:00",9.5,9.2,5.6,0.0,0,1015.5,3,4,"",98
"2013-12-21 06:49:00",9.4,9.1,5.6,0.0,0,1015.4,1,4,"",98
"2013-12-21 06:50:00",9.5,9.2,5.6,0.0,0,1015.4,1,8,"",98
"2013-12-21 06:51:00",9.5,9.2,5.6,0.0,0,1015.5,4,6,"",98
"2013-12-21 06:52:00",9.5,9.2,5.6,0.0,0,1015.4,3,4,"",98
"2013-12-21 06:53:00",9.5,9.2,5.6,0.0,0,1015.4,4,15,"",98
"2013-12-21 06:54:00",9.5,9.2,5.6,0.0,0,1015.4,4,4,"",98
"2013-12-21 06:55:00",9.5,9.2,5.6,0.0,0,1015.4,3,4,"",98
"2013-12-21 06:56:00",9.5,9.2,5.6,0.0,0,1015.3,1,8,"",98
"2013-12-21 06:57:00",9.5,9.2,5.6,0.0,0,1015.4,3,8,"",98